Location: Mauries
(43.6188°N, 0.3322°W)
Time: 18:52:09
(UTC+00:00)

Cosmos 864 Rocket - Pass Details

Date: 14 January 2026
Orbit: 953 x 990 km, 82.9° (Epoch: 10 February)

Event Time Altitude Azimuth Distance (km) Brightness Sun altitude
Rises 06:59:45 0° 189° (S) 3,619 7.7 -6.1°
Reaches altitude 10° 07:02:14 10° 190° (S) 2,675 7.0 -5.7°
Maximum altitude 07:08:21 80° 278° (W) 971 4.5 -4.7°
Drops below altitude 10° 07:14:31 10° 6° (N) 2,691 6.6 -3.7°
Sets 07:17:01 0° 8° (N) 3,643 7.3 -3.3°
